PRAETORIAN SDA_617

Last updated on Sun Jun 21 2026 00:03:46 GMT+0000 (Coordinated Universal Time)

1 65580U 25203R 26171.47718117 .00000022 00000+0 90612-5 0 9995 2 65580 81.3036 7.8658 0007451 175.0795 185.0435 13.83150161 39144
UTC large
Height (km)
Speed (km/s)
/
Latitude / Longitude
Inclination (degrees)
Orbital Period (minutes)
Azimuth
Elevation
Range (km)
Doppler Factor

Next 0 passes for location: London (51.5072 / 0.1276)

No passes found over London.
PRAETORIAN SDA_617